Americus, GA

10:04 PM EDT on June 25, 2017 (GMT -0400)
Souther

Weather History for KACJ - April, 2013

Change the Weather History Date:

Friday, April 5, 2013

  Actual Average (KABY) Record (KABY)
Temperature  
Mean Temperature 48 °F -  
Max Temperature 55 °F 75 °F 90 °F (2010)
Min Temperature 42 °F 51 °F 30 °F (1987)
Degree Days  
Heating Degree Days 16    
Moisture  
Dew Point 44 °F    
Average Humidity 91    
Maximum Humidity 100    
Minimum Humidity 67    
Precipitation  
Precipitation 0.00 in - - ()
Sea Level Pressure  
Sea Level Pressure 30.01 in    
Wind  
Wind Speed 7 mph (NNE)    
Max Wind Speed 10 mph    
Max Gust Speed 16 mph    
Visibility 9 miles    
Events Rain , Thunderstorm    
Averages and records for this station are not official NWS values.
T = Trace of Precipitation, MM = Missing Value Source: NWS Daily Summary

Daily Weather History Graph

Daily Weather History Graph

Search for Another Location

Airport or City:

Trip Planner

Search our weather history database for the weather conditions in past years. The results will help you decide how hot, cold, wet, or windy it might be!

Date:

Astronomy

Apr. 05, 2013 Rise Set
Actual Time 7:19 AM EDT 7:59 PM EDT
Civil Twilight 6:54 AM EDT 8:24 PM EDT
Nautical Twilight 6:25 AM EDT 8:53 PM EDT
Astronomical Twilight 5:56 AM EDT 9:23 PM EDT
Moon 4:10 AM EDT (4/5) 3:37 PM EDT (4/5)
Length of Visible Light 13h 29m
Length of Day
12h 39m
Waning Crescent, 24% of the Moon is Illuminated
Apr 5
Waning Crescent
Apr 10
New
Apr 18
First Quarter
Apr 25
Full
May 2
Last Quarter

Hourly Weather History & Observations

Time (EDT) Temp. Windchill Dew Point Humidity Pressure Visibility Wind Dir Wind Speed Gust Speed Precip Events Conditions
12:15 AM 44.6 °F 39.7 °F 42.8 °F 93% 29.97 in 5.0 mi NE 9.2 mph - N/A   Overcast
12:35 AM 44.6 °F 39.2 °F 42.8 °F 93% 29.97 in 5.0 mi NE 10.4 mph - N/A   Overcast
12:55 AM 42.8 °F 37.5 °F 42.8 °F 100% 29.97 in 5.0 mi ENE 9.2 mph - N/A   Overcast
1:15 AM 42.8 °F 38.0 °F 42.8 °F 100% 29.97 in 7.0 mi East 8.1 mph - N/A   Overcast
1:35 AM 42.8 °F 38.6 °F 42.8 °F 100% 29.97 in 7.0 mi ENE 6.9 mph - N/A   Overcast
1:55 AM 42.8 °F 40.1 °F 42.8 °F 100% 29.96 in 7.0 mi ENE 4.6 mph - N/A   Overcast
2:15 AM 42.8 °F 38.6 °F 42.8 °F 100% 29.95 in 5.0 mi ENE 6.9 mph - N/A   Overcast
2:35 AM 42.8 °F 38.6 °F 42.8 °F 100% 29.96 in 4.0 mi NNE 6.9 mph - N/A   Overcast
2:55 AM 42.8 °F 39.3 °F 42.8 °F 100% 29.93 in 1.2 mi East 5.8 mph - N/A   Overcast
3:15 AM 42.8 °F 40.1 °F 42.8 °F 100% 29.94 in 0.8 mi NE 4.6 mph - N/A Rain Rain
3:55 AM 42.8 °F 39.3 °F 42.8 °F 100% 29.94 in 1.2 mi NNE 5.8 mph - N/A   Light Drizzle
4:15 AM 42.8 °F 39.3 °F 42.8 °F 100% 29.94 in 2.0 mi NE 5.8 mph - N/A   Overcast
4:35 AM 42.8 °F 38.6 °F 42.8 °F 100% 29.94 in 3.0 mi NNE 6.9 mph - N/A   Overcast
4:55 AM 42.8 °F 37.5 °F 42.8 °F 100% 29.94 in 2.5 mi NNE 9.2 mph - N/A   Overcast
5:15 AM 42.8 °F 38.6 °F 42.8 °F 100% 29.95 in 1.8 mi NNE 6.9 mph - N/A Rain Heavy Rain
5:35 AM 42.8 °F 37.5 °F 42.8 °F 100% 29.95 in 7.0 mi NE 9.2 mph - N/A Rain Rain
5:55 AM 42.8 °F 39.3 °F 42.8 °F 100% 29.95 in 10.0 mi NNE 5.8 mph - N/A   Overcast
6:15 AM 42.8 °F 39.3 °F 42.8 °F 100% 29.96 in 10.0 mi North 5.8 mph - N/A Thunderstorm Unknown
6:35 AM 42.8 °F 38.0 °F 42.8 °F 100% 29.96 in 10.0 mi NNE 8.1 mph - N/A   Drizzle
6:55 AM 42.8 °F 39.3 °F 42.8 °F 100% 29.96 in 10.0 mi North 5.8 mph - N/A Rain Light Rain
7:15 AM 42.8 °F 37.0 °F 42.8 °F 100% 29.97 in 10.0 mi North 10.4 mph 16.1 mph N/A Rain Rain
7:35 AM 42.8 °F 38.0 °F 42.8 °F 100% 29.97 in 10.0 mi NNE 8.1 mph - N/A Rain , Thunderstorm Light Thunderstorms and Rain
7:55 AM 42.8 °F 39.3 °F 42.8 °F 100% 29.97 in 10.0 mi NNE 5.8 mph - N/A Rain Light Rain
8:15 AM 42.8 °F 38.6 °F 42.8 °F 100% 29.99 in 10.0 mi NNE 6.9 mph - N/A   Overcast
8:35 AM 42.8 °F 38.6 °F 42.8 °F 100% 29.99 in 10.0 mi NNE 6.9 mph - N/A Rain Light Rain
8:55 AM 42.8 °F 37.5 °F 42.8 °F 100% 30.00 in 10.0 mi NNE 9.2 mph - N/A Rain Light Rain
9:15 AM 42.8 °F 40.1 °F 42.8 °F 100% 30.01 in 10.0 mi North 4.6 mph - N/A Rain Light Rain
9:35 AM 42.8 °F 40.1 °F 42.8 °F 100% 30.03 in 10.0 mi North 4.6 mph - N/A   Overcast
9:55 AM 42.8 °F 38.0 °F 42.8 °F 100% 30.03 in 10.0 mi North 8.1 mph - N/A   Overcast
10:15 AM 42.8 °F 39.3 °F 41.0 °F 93% 30.04 in 10.0 mi North 5.8 mph - N/A   Overcast
10:35 AM 42.8 °F 38.6 °F 42.8 °F 100% 30.04 in 10.0 mi North 6.9 mph - N/A   Overcast
10:55 AM 44.6 °F 43.1 °F 42.8 °F 93% 30.04 in 10.0 mi NE 3.5 mph - N/A   Overcast
11:15 AM 46.4 °F 42.4 °F 44.6 °F 93% 30.03 in 10.0 mi NE 8.1 mph - N/A   Overcast
11:35 AM 46.4 °F 41.5 °F 42.8 °F 87% 30.03 in 10.0 mi NE 10.4 mph - N/A   Overcast
11:55 AM 46.4 °F 42.4 °F 44.6 °F 93% 30.04 in 10.0 mi NE 8.1 mph - N/A   Overcast
12:15 PM 48.2 °F - 42.8 °F 82% 30.05 in 10.0 mi NNE 9.2 mph - N/A   Overcast
12:35 PM 50.0 °F - 42.8 °F 76% 30.05 in 10.0 mi NNE 8.1 mph - N/A   Overcast
12:55 PM 50.0 °F - 44.6 °F 82% 30.04 in 10.0 mi NNE 6.9 mph - N/A   Overcast
1:15 PM 50.0 °F - 44.6 °F 82% 30.04 in 10.0 mi NNW 4.6 mph - N/A   Overcast
1:35 PM 50.0 °F - 44.6 °F 82% 30.04 in 10.0 mi North 5.8 mph - N/A   Overcast
1:55 PM 51.8 °F - 44.6 °F 76% 30.04 in 10.0 mi North 8.1 mph - N/A   Overcast
2:15 PM 51.8 °F - 44.6 °F 76% 30.04 in 10.0 mi North 8.1 mph - N/A   Overcast
2:35 PM 51.8 °F - 44.6 °F 76% 30.03 in 10.0 mi North 8.1 mph - N/A   Overcast
2:55 PM 51.8 °F - 44.6 °F 76% 30.03 in 10.0 mi North 6.9 mph - N/A   Overcast
3:15 PM 51.8 °F - 44.6 °F 76% 30.03 in 10.0 mi North 9.2 mph - N/A   Overcast
3:35 PM 53.6 °F - 44.6 °F 72% 30.02 in 10.0 mi NNW 8.1 mph - N/A   Overcast
3:55 PM 53.6 °F - 44.6 °F 72% 30.02 in 10.0 mi North 9.2 mph - N/A   Overcast
4:15 PM 53.6 °F - 44.6 °F 72% 30.02 in 10.0 mi North 5.8 mph - N/A   Overcast
4:35 PM 53.6 °F - 44.6 °F 72% 30.01 in 10.0 mi North 6.9 mph - N/A   Overcast
4:55 PM 53.6 °F - 44.6 °F 72% 30.01 in 10.0 mi NNE 9.2 mph - N/A   Overcast
5:15 PM 53.6 °F - 44.6 °F 72% 30.01 in 10.0 mi North 5.8 mph - N/A   Overcast
5:55 PM 55.4 °F - 44.6 °F 67% 30.02 in 10.0 mi NNW 3.5 mph - N/A   Mostly Cloudy
6:15 PM 55.4 °F - 46.4 °F 72% 30.02 in 10.0 mi Calm Calm - N/A   Mostly Cloudy
6:35 PM 55.4 °F - 46.4 °F 72% 30.02 in 10.0 mi North 3.5 mph - N/A   Mostly Cloudy
6:55 PM 55.4 °F - 46.4 °F 72% 30.02 in 10.0 mi Calm Calm - N/A   Mostly Cloudy
7:15 PM 55.4 °F - 46.4 °F 72% 30.02 in 10.0 mi Calm Calm - N/A   Scattered Clouds
7:35 PM 55.4 °F - 46.4 °F 72% 30.03 in 10.0 mi Calm Calm - N/A   Clear
7:55 PM 51.8 °F - 50.0 °F 94% 30.04 in 10.0 mi Calm Calm - N/A   Clear
8:15 PM 51.8 °F - 50.0 °F 94% 30.04 in 10.0 mi Calm Calm - N/A   Clear
8:35 PM 50.0 °F - 48.2 °F 94% 30.05 in 10.0 mi Calm Calm - N/A   Clear
8:55 PM 50.0 °F - 48.2 °F 94% 30.05 in 10.0 mi Calm Calm - N/A   Clear
9:15 PM 48.2 °F - 48.2 °F 100% 30.06 in 10.0 mi Calm Calm - N/A   Clear
9:35 PM 46.4 °F - 46.4 °F 100% 30.07 in 10.0 mi Calm Calm - N/A   Clear
9:55 PM 46.4 °F - 46.4 °F 100% 30.07 in 10.0 mi Calm Calm - N/A   Clear
10:15 PM 46.4 °F - 46.4 °F 100% 30.08 in 10.0 mi Calm Calm - N/A   Clear
10:35 PM 46.4 °F - 44.6 °F 93% 30.08 in 10.0 mi Calm Calm - N/A   Clear
10:55 PM 44.6 °F - 44.6 °F 100% 30.08 in 10.0 mi Calm Calm - N/A   Clear
11:15 PM 44.6 °F - 44.6 °F 100% 30.08 in 7.0 mi Calm Calm - N/A   Clear
11:35 PM 44.6 °F - 44.6 °F 100% 30.08 in 10.0 mi Calm Calm - N/A   Clear
11:55 PM 44.6 °F - 44.6 °F 100% 30.09 in 10.0 mi Calm Calm - N/A   Clear